{"data":{"norad_id":65125,"intl_designator":"2025-170G","name":"GEESAT-4 07","alt_names":[],"object_type":"PAYLOAD","status":"ACTIVE","operator":null,"country":"PRC","launch_date":"2025-08-08","launch_site_code":"YSLA","launch_vehicle":null,"mission":null,"orbit_class":"UNKNOWN","rcs_meters":null,"size_class":null,"mass_kg":null,"dimensions":null,"purposes":[],"wikipedia_slug":null,"has_3d_model":false,"image_url":null,"decayed_at":null,"tle_current":{"epoch":"2026-05-25T04:03:43.435008Z","epoch_age_seconds":50706,"freshness":"FRESH","line1":"1 65125U 25170G   26145.16925272  .00001440  00000+0  19840-3 0  9999","line2":"2 65125  49.9929 280.9689 0017923 324.7198  35.2553 14.83935293 43019","mean_motion":14.83935293,"eccentricity":0.0017923,"inclination_deg":49.9929,"raan_deg":280.9689,"arg_perigee_deg":324.7198,"mean_anomaly_deg":35.2553,"bstar":0.0001984,"rev_number":4301,"period_min":97.039271644306,"perigee_km":604.39252857842,"apogee_km":629.46704498231,"semimajor_km":6995.0667867804,"source":"CELESTRAK","updated_at":"2026-05-25T13:38:05.138801Z"}}}